Flag for Poland Weather past 2 weeks in Białystok, Poland

Now
48 °F

Clear.


Feels Like: 48 °F
Forecast: 51 / 66 °F
Wind: 1 mph from Southeast

Location: Bialystok

Current Time: Aug 30, 2014 at 1:07:56 AM

Latest Report: Aug 30, 2014 at 12:00 AM


Visibility: 6 mi

Pressure: 30.01 "Hg

Humidity: 97%

Dew point: 47 °F

Location of BiałystokLocation

Historic Weather in Białystok — Graph

°F

Białystok temperature yesterday

Maximum temperature yesterday: 69 °F (at 4:00 PM)
Minimum temperature yesterday: 44 °F (at 3:00 AM)
Average temperature yesterday: 56 °F

Past Weeks' High & Low Weather Summary

 TemperatureHumidityPressure
High73 °F (Aug 15, 4:00 PM)99% (Aug 22, 7:00 AM)30.06 "Hg (Aug 22, 7:00 AM)
Low41 °F (Aug 22, 5:00 AM)38% (Aug 20, 6:00 PM)29.71 "Hg (Aug 26, 7:00 PM)
Average57 °F81%29.88 "Hg
* Reported Aug 14 11:00 PM — Aug 29 11:00 PM, Białystok, Weather by CustomWeather, © 2014

Note: Actual official high and low records may vary slightly from our data, if they occured in-between our weather recording intervals... More about our weather records

Advertising

Białystok weather history for previous 24 hours

 ConditionsComfort  
Time TempWeatherWind HumidityBarometerVisibility
11:00 PM
Aug 29
49 °FClear.No wind96%30.02 "Hg6 mi
9:00 PM51 °FPassing clouds.No wind93%30.01 "Hg7 mi
8:00 PM53 °FPassing clouds.No wind90%30.01 "Hg16 mi
7:00 PM59 °FScattered clouds.No wind81%30.00 "Hg16 mi
6:00 PM67 °FScattered clouds.2 mph53%29.99 "Hg28 mi
5:00 PM68 °FScattered clouds.5 mph46%29.99 "Hg25 mi
4:00 PM69 °FScattered clouds.3 mph44%29.99 "Hg25 mi
3:00 PM69 °FScattered clouds.5 mph41%30.00 "Hg22 mi
2:00 PM68 °FScattered clouds.5 mph48%30.01 "Hg19 mi
1:00 PM65 °FPartly sunny.6 mph54%30.01 "Hg25 mi
12:00 PM65 °FPartly sunny.3 mph60%30.02 "Hg19 mi
11:00 AM63 °FScattered clouds.3 mph65%30.03 "Hg19 mi
10:00 AM61 °FScattered clouds.3 mph77%30.03 "Hg17 mi
9:00 AM57 °FPartly sunny.1 mph82%30.04 "Hg25 mi
8:00 AM53 °FPartly sunny.2 mph86%30.04 "Hg22 mi
7:00 AM50 °FScattered clouds.No wind96%30.03 "Hg16 mi
6:00 AM47 °FPartly sunny.2 mph98%30.03 "Hg14 mi
5:00 AM45 °FFog.1 mph97%30.02 "Hg2 mi
4:00 AM45 °FPassing clouds.2 mph98%30.02 "Hg10 mi
3:00 AM44 °FFog.1 mph96%30.02 "Hg7 mi
2:00 AM48 °FClear.2 mph93%30.01 "Hg28 mi
1:00 AM49 °FPassing clouds.2 mph90%30.01 "Hg31 mi
Weather by CustomWeather, © 2014

See weather overviewHow to use our weather pages